Retour au catalogue

STARLINK-4101

ActifCommunicationsVLEO
NORAD 53142·PAYLOAD·🇺🇸 United States

Lancé Jul 17, 2022 depuis Cape Canaveral Space Force Station

Loading…

Prochains Passages (prochaines 24 heures)

TLE

FraisSource: CelesTrak SupGP

Époque: Sep 14, 2026, 21:36 UTC

1 53142C 22083L   26257.90048611 -.00007997  00000+0 -23630-3 0  2578
2 53142  53.1603  30.2375 0001098  76.3715 177.1990 15.34391674    10

Suivez STARLINK-4101 en temps réel avec AllMySat

Download on the App Store